This is the latest recevied weather packets stored in our database for station/object KD8BMB. If no packets are shown the sender has not sent any weather packets the latest 10 day(s).
| Time | Temp. | Humidity | Pressure | Rain* | Wind** | Luminosity | Snow |
|---|---|---|---|---|---|---|---|
| 1778098305 | 11.11° C | 48% | 1012.2 hPa | 0 mm | - | 135 W/m² | - |
| 1778098002 | 11.11° C | 48% | 1012.1 hPa | 0 mm | - | 171 W/m² | - |
| 1778097699 | 11.11° C | 49% | 1012.3 hPa | 0 mm | - | 157 W/m² | - |
| 1778097395 | 11.11° C | 49% | 1012.4 hPa | 0 mm | - | 162 W/m² | - |
| 1778097092 | 11.11° C | 48% | 1012 hPa | 0 mm | - | 216 W/m² | - |
| 1778096789 | 11.11° C | 49% | 1012.2 hPa | 0 mm | - | 291 W/m² | - |
| 1778096485 | 11.11° C | 47% | 1012.4 hPa | 0 mm | - | 331 W/m² | - |
| 1778096183 | 10.56° C | 48% | 1012.4 hPa | 0 mm | - | 302 W/m² | - |
| 1778095880 | 10.56° C | 48% | 1012.5 hPa | 0 mm | - | 234 W/m² | - |
| 1778095577 | 10.56° C | 50% | 1012.6 hPa | 0 mm | - | 214 W/m² | - |
| 1778095273 | 10.56° C | 50% | 1012.5 hPa | 0 mm | - | 281 W/m² | - |
| 1778094970 | 10.56° C | 50% | 1012.3 hPa | 0 mm | - | 224 W/m² | - |
| 1778094665 | 11.67° C | 47% | 1012.6 hPa | 0 mm | - | 226 W/m² | - |
| 1778094363 | 11.11° C | 48% | 1012.6 hPa | 0 mm | - | 281 W/m² | - |
| 1778094060 | 10.56° C | 49% | 1012.6 hPa | 0 mm | - | 792 W/m² | - |
| 1778093757 | 10.56° C | 49% | 1012.6 hPa | 0 mm | - | 314 W/m² | - |
| 1778093453 | 10.56° C | 50% | 1012.5 hPa | 0 mm | - | 223 W/m² | - |
| 1778093151 | 10.56° C | 49% | 1012.5 hPa | 0 mm | - | 176 W/m² | - |
| 1778092848 | 10.56° C | 49% | 1012.6 hPa | 0 mm | - | 189 W/m² | - |
| 1778092544 | 11.67° C | 47% | 1012.9 hPa | 0 mm | - | 311 W/m² | - |
| 1778092241 | 11.67° C | 46% | 1012.7 hPa | 0 mm | - | 777 W/m² | - |
| 1778091938 | 11.11° C | 48% | 1012.9 hPa | 0 mm | - | 777 W/m² | - |
| 1778091635 | 10.56° C | 49% | 1012.7 hPa | 0 mm | - | 556 W/m² | - |
| 1778091333 | 10.56° C | 49% | 1012.9 hPa | 0 mm | - | 398 W/m² | - |
| 1778091030 | 10.56° C | 49% | 1012.9 hPa | 0 mm | - | 401 W/m² | - |
* Rain latest hour (hover to see other rain measurements)
** Current wind speed in m/s (hover to see current wind gust speed)